"Pseudo-MPEC" for P21Um9i

Created 2024 May 19 15:22:08 UT using Find_Orb

Click here for an explanation of pseudo-MPECs

 
 Astrometry: 
     P21Um9i  C2021 04 17]'Astrometry!yl;atw!H7W^Vc7mXxWqKNHoP+QQ+Gxa#9#w7$ENF51
     P21Um9i  C2021 04 17[*^aGu.s?QyGHx_S)D[`#ucTfgTn#^,_('?UFq.HqW0d)U??;vn$F51
     P21Um9i  C2021 04 17QZE+(HC4A(pHHLHsZpjkpT0T/OsJKA(V!Na]P^KqgBsiHBb(l,NcF51
     P21Um9i  C2021 04 17`^qJ3DN8eWo@+0W5o(-6JZYrAUo']2AA]E.'tFFQof6C%OK2ePGDF51
     P21Um9i  C2021 06 01I?1rn^uiAAwH;xHFm4\M1a7NAgueCx^/K^#/4m+UDSpBjjR=mt9uF51
     P21Um9i  C2021 06 01;ZJ[WI?fNXD7F7B![PqX,gHvs?Rf9kbU%26]5/#=AGUg8wBtMm,YF51
     P21Um9i  C2021 06 01ZT0-sbtg.6Bg2$lu(/qO8h[CNHWcVAp))Dpk4lY7X]).?l%I1q7'F51
     P21Um9i  C2021 06 01,-J[/[x?H`GMQ[?drRU`uH?D36[:CBXQ0pVXs%FH;?23qhCWdkv.F51
     P21Um9i  C2022 02 05$gDr0f6BjRhGda=Dae_'RLRtod^`:G'kjk1'3)Kerr*3jNuU3Va_F52
     P21Um9i  C2022 02 05.\Urto3AhnfX`x_s'e9S7Cg'q7^rxCZZRSUH@P64=nto.Hvsa*0^F52
     P21Um9i  C2022 02 05qlU3)m_'6?bCLqklG['dOU37#0d:redacted;OeA1RJ$click7QoF52
     P21Um9i  C2022 02 05Vm8]]O@0^Gfr_C(Ivxr;s*mCb*O1:v#wo`'5XksWk?UMhq#AinM1F52
     P21Um9i  C2022 02 098joA!dqY;f?v!xhu$y@C.ne%K`IjUPUG@%BvC9U8N5[W0^VQ[eyGF52
     P21Um9i  C2022 02 09DJaGnpR$qL)9H-Wr3`-HfYKO0,:/-83I:(?l`krC^uIkRAXl)'Y!F52
     P21Um9i  C2022 02 09`^PpjDYR7F!Q(twh?o1$j4ow0(im/no`E?+iR]R81[2.#RX50H#YF52
     P21Um9i  C2022 03 03y3aiZpkO?,t87=DNxwf/XRr[*PJnR(NRo5AP`f%%LSrcJkHmW2%0F52
     P21Um9i  C2022 03 03*;nZ?c2G7=L9mfLl,%J)4;R(sda]HQ(BnnC+3`2L-x,YDm8=BQXNF52
     P21Um9i  C2022 03 293+ltB:QNvsBD(WWn^dlDxk76-.28A:KL,IQwvJ?A@GRQ;jb5:-*:F52
     P21Um9i  C2022 04 10iq-01X6rX_r/\o3Vj.WB_MgUiVIv6Tj%Kw56VL.he'RP?X@Mig)vF52
     P21Um9i  C2022 04 10+9F[PTLU%IkoYq$6_T85sJ/!:%BVcdwRI.wMSG`$Kb:d-SjWbEqgF52
     P21Um9i  C2022 04 28gNP_D-$A_vEGtrTuX2FA'd74=[E%=FGEQ-i^1dw-/y['SV:@V5G@F52
     P21Um9i  C2022 04 2857bZphw=6vHC?`.*]o96QuDaidr$e8^*FZ52=%b?(%02=%%S0QriF52
     P21Um9i  C2022 04 28;jG\,Zf,;AA'^CXK72]Tl=b=mNa/rbi/HJOU?pPF/QCgSo$@,32IF52
     P21Um9i  C2022 05 26OhABq(+iDuRmE(Hxx-OaN)V-I=t5f##-yNi+rhZJ[YR]w+[;leAHF52
     P21Um9i  C2022 05 263(KP`pY=XXl!=diwhJ0A--Cr.YmVlu[vQAl08$i^`o^ktnf[Vl$XF52
     P21Um9i  C2022 05 26f72v]aW3mRZ#k^F)-,4EQbm=CIcH\'4sme1UBxHuX%@q#53/#2`eF52
     P21Um9i  C2022 06 05%W/O@11Hy^;dIJaHL\ZRVQXYgECjW]06;?e[*P])iSHlW/:*EO6UF52
     P21Um9i  C2022 06 05n4Gm18$o:0AZE%0].S60FG?:Qigsp5bq\sc`Be!R`[ReE5NS%^yLF52
     P21Um9i  C2022 06 05X9Xv]yJ-52$K_h2(Sg4:f%!U-TZlSaJG?^Jk-6oYv7E$kfl_hYChF52
     P21Um9i  C2022 06 05LxI+dB,)vj!G[c7+B3BAkg-^LOqkr_=pb5VL1b/-S1.4tFsp3k%)F52
     P21Um9i  C2023 03 27x=0'4!ysrJ\abrhr%A]h0W4)'Gyr]JCmQWHP+@A')SoU2j8TIh^PF51
     P21Um9i  C2023 03 27j7ptLnAW%i.dcb+DCiwlDd\]d7,-O7Q@9Go@o6wuZ+_CHEBk4s7XF51
     P21Um9i  C2023 03 27]sod/m9`4,a)L1?J`y/ywWD?2l9EPg:RQ;E/hereUYph'[lg5gf3F51
     P21Um9i  C2023 03 27e_6xQ)C[p]3HT(G=]ZYTv[1n#Jj@^/%ta1#*ltBZvPbwmF1'a]5rF51
     P21Um9i  C2023 04 14+8MV\m:lMh-8El^s4o'Fe'WF')pki/EEe9kl'y^LkCFYaowBpIMcF52
     P21Um9i  C2023 04 14PFF!750/4/NM!u.Y5k5Jd^!,T=V\`(';?K(Q[VX6Qg61V[gk+Q)`F52
     P21Um9i  C2023 05 138^#H@^bHe$A[)IfYETefjvBKcg0oppa.N/NfKPQOq2YtSQTx,?PoF52
     P21Um9i  C2023 05 13:V2'f[Q7B`?+h+W?6,6?eUq?SW8q--1csl*Uxuw^:]y:E567@!mkF52
     P21Um9i  C2023 05 13tH2r/s]sF*W!(,S@6FyPl4P(%J]r;Ws=CEMp\fWn=K4=a5k'*uc/F52
     P21Um9i  C2023 05 13F\;W/YT.,Jj,@1=8%ZcnQ$)modQE':k'P,8_?lGKpfor81j#()\FF52
     P21Um9i KC2023 05 24Pm%3`NQksX,d9\KQvDwCJG5[88uuZu%NmhOxZH1@gJVlV,6-*`UsF52
     P21Um9i  C2023 06 07vG2:Batq@rgkG@%oQE6UU(eb?sl%NeUuQoqlDhgF:.7aN1Y;G5q*F51
     P21Um9i  C2023 06 07YIs%(!D^Pv-!BQD/x^riF,1ZG2IIQ?wVRU`]QG^My(7QA/@A/LRiF51
     P21Um9i  C2023 06 07N8F5xTm.VEcp(nAvqI3HDvhe+oquC63i%)AYv*jvG`XpXyl)#YQGF51
     P21Um9i  C2023 06 15Ut3`i^[2NIUS,Q3)[WY\q7RPkDYn#eoX_\?NAT:oWIId6G5mZrqJF51
     P21Um9i  C2023 06 15nI(0GZ_,X4]f(-x+0,cumwG1nLZ1uu!cU:ILL7/m?pkJ-0ZJ`MG-F51
     P21Um9i  C2023 06 159o3MZ.CVd`eXc7_!RsKCw,P.fTH:!/-pC4Q+WaIqL(ZAZ?sSjPvFF51
     P21Um9i  C2023 06 158c`WUJ%mR0xcqHZx*:%N5x[Yne0:$Mn^#hV(5.9hKdj_btSXy'GQF51
     P21Um9i  C2023 07 09b[EMk9+raJVdl2F\t_Jy$:^fh7yArFrZ[qaL0mxqqT5=@[ynuImyF51
     P21Um9i  C2023 07 09c+?+vLn?DN;6'%]%PT4eq.!K#vtJO8VnC,gJ!`n):dsAiV!tdi_6F51
     P21Um9i  C2023 07 09w:aT65Y?'i4%uUOv;wUaSQ+0,%tOdYK5I;niB]W!X2P/'Ni6iBANF51
     P21Um9i  C2023 07 09,'S'VLE]+qrTf@C.#d5f:xmBg^f0%:-HwctC%nL3ZF1BIe,9R!7yF51
     P21Um9i  C2023 07 16wY]cC=$_JL7g4BY\nlp;#8iy1uTItQ(2;KOsdSyU@yCbX%1Ju(hxF51
     P21Um9i  C2023 07 16qA0Fu3@Lo,gt5:^h9n/8kKpK\u#h;Nc%t^8ne-!,'6G?Y`ghyYmIF51
     P21Um9i  C2023 07 16*Px*F!Ma)6@#OXL:?'F=m@PTar-tf0$p/cdjXnZxK/WwIP$JQv=KF51
     P21Um9i  C2023 07 16LK2E2-1Ce[,(wprU-.j?A@oDFvaKg^!SEfPdG\mE-?TKLoC[kcQkF51
     P21Um9i  C2024 05 01-QAH#wi;yw:eM$gdKfqk@vq]F:rkWI\UWA2Td'-aAM5y:yKJpFg7F52
     P21Um9i  C2024 05 01F\0793M2h*ST9q[YMnVAG'!qwqmWUnk)Z3ggh^#[=Z.e6*f=+]naF52
     P21Um9i  C2024 05 01/f/MAf\5WeIES633tjn8JWW:;D1F[%bjFqqg]T;s%`L;M:5qb'BsF52
     P21Um9i  C2024 05 019\4]n[rMwcsn4`QhFbA`h6g\L_E-[rFq-]eBVm?sfg-'rvw?8sYZF52
     P21Um9i  C2024 05 04/!=[`Cu4ilAM2explanation=)%\E#/Lv_$oQwN2,)OBikeY.1U[F52
     P21Um9i  C2024 05 04CrH/tG2^N.CR#uO,-5561Y[vw:+bo@+h9-Q3Ucq)Lo5)D5+S%Ae^F52
     P21Um9i  C2024 05 04V;5pxfu].4k_!M]NBr2@j!%wVX.L2,l-Cuh9whJ%DFwV@AXE?8E[F52
     P21Um9i  C2024 05 04W!me'Ktgntc]4:%*d+(d\_*$qOC/N$@OL_VR0*sY%\mPAQ:YXcrbF52
     P21Um9i* C2024 05 07gik0S?hMH:3YFwc@VBVLi-H@!N47rP$BhI;1v%cwLa:F=]VjL=lmF52
     P21Um9i  C2024 05 07s@G-Xs765Y%8Oj5moRDA9^A1uRUHoGoBgp)yiA6Yoq)_`PT9tPR3F52
     P21Um9i  C2024 05 07K=b#rdM?Yoa)y`s@PRtE#$^d.9#]C/pnMXLECy?VnZ:Gt3gK?JBtF52
     P21Um9i  C2024 05 07c`(ceys5GFHsEErUAxohM\0x!LxFe^(An@u)Bu+;tP49,/k!Q^apF52
     P21Um9i 3C2024 05 099gskg8*pZ,T[!v0-l*]ZwiiCE@;]\2v#_BkwL;12Y@mZpWAb;%B9T14
     P21Um9i 3C2024 05 09He6G,Q*Bc[E#jTO+e;_bSV?tZS;M=#fo..2i.5lxCu^.jHRU$K*vT14
     P21Um9i 3C2024 05 09+]k39r*=8yKGfn/!:aDiE,Y.11f\;=Ay..8Z9/sl4tX()3vj1ejrT14
     P21Um9i KC2024 05 10.45180816 01 10.920-06 15 47.70   ~5ABb       VNEOCPV06
     P21Um9i KC2024 05 10.46115616 01 10.780-06 15 47.50   ~5ABb 22.29GVNEOCPV06
     P21Um9i KC2024 05 12xlc#GEsdArr)d-vNCb!E]iA'T-KL_q-IuTHni@jM^w#2WFu1@nk;H21
     P21Um9i KC2024 05 12PEHULbMY1HgYp_#jOPN'S;^T6pV0!KnNJ6Q9GyIe)mo3AvA\ZuL*H21
     P21Um9i KC2024 05 12+\I,bq`6ugLLM%--NL7uA$=qESRt6%_e$WLn,9tY?G^UgSFbt$YFH21
     P21Um9i KC2024 05 15.31937116 00 04.748-06 14 51.68   ~5F8q 21.90GVNEOCPV06
     P21Um9i KC2024 05 15.32948916 00 04.604-06 14 51.54   ~5F8q 21.68GVNEOCPV06
     P21Um9i KC2024 05 15.33968516 00 04.460-06 14 51.50   ~5F8q 21.86GVNEOCPV06
     P21Um9i KC2024 05 15.35001616 00 04.324-06 14 51.32   ~5F8q 21.65GVNEOCPV06
     P21Um9i DC2024 05 19$3Rxmh$cNih_o6k.1JN2cTA*aAF6F\Jm4H`IPJk5?([(m+0%HdGR695
     P21Um9i DC2024 05 19LhybhYx8L2;f4ui?y[T?=i!0u1iwOjP!3)=!b;n4'/^i[^$iWu3X695
     P21Um9i DC2024 05 19_.iO_?5t,rk.ZaVHh?H^#ls;J=rFP*+8MZwFTgt:_eHt$BIwEa!7695

Station data:
(695) Kitt Peak  (N31.958395 W111.594670)  US/Arizona. Measurer S. Deen.
   3.5-m f/1.75 reflector + CCD0.9-m f/7.5 reflector + CCD4.0-m
   Ritchey-Chrétien + CCD0.61-m f/3.5 Schmidt + CCD2.3-m f/9 reflector + CCD.
(F51) Pan-STARRS 1, Haleakala  (N20.707234 W156.255910)  US/Hawaii.
   Observers J. Bulger, T. Lowe, A. Schultz, M. Willman. Measurers K.
   Chambers, S. Chastel, T. de Boer, L. Denneau, J. Fairlamb, H. Flewelling,
   M. Huber, C.-C. Lin, E. Magnier, Y. Ramanjooloo, R. Wainscoat, R. Weryk.
   1.8-m Ritchey-Chrétien + CCD.
(F52) Pan-STARRS 2, Haleakala  (N20.707382 W156.255910)  US/Hawaii.
   Observers J. Bulger, T. Dukes, T. Lowe, A. Schultz, M. Willman. Measurers
   K. Chambers, S. Chastel, T. de Boer, L. Denneau, J. Fairlamb, H.
   Flewelling, M. Huber, C.-C. Lin, E. Magnier, Y. Ramanjooloo, R. Wainscoat,
   R. Weryk. 1.8-m Ritchey-Chrétien + CCD.
(H21) Astronomical Research Observatory, Westfield  (N39.483054 W87.968270)
   US/Illinois.  Observer R. Holmes. Measurers S. Foglia, L. Buzzi, T.
   Linder, R. Holmes. 0.76-m f/3.0 astrograph + CCD0.81-m f/4.0 astrograph +
   CCD0.61-m f/4.5 astrograph + CCD0.40-m f/5.32 astrograph + CCD.
(T14) Mauna Kea-UH/Tholen NEO Follow-Up (CFHT)  (N19.825252 W155.468876)
   US/Hawaii.  Observer R. Weryk. 3.6-m Canada-France-Hawaii Telescope.
(V06) Catalina Sky Survey-Kuiper  (N32.416871 W110.732550)  US/Arizona.
   Observers T. A. Pruyne, B. M. Africano, E. J. Christensen, G. A. Farneth,
   D. C. Fuls, A. R. Gibbs, A. D. Grauer, H. Gröller, J. A. Johnson, R. A.
   Kowalski, S. M. Larson, G. J. Leonard, D. Rankin, R. L. Seaman, F. C.
   Shelly, K. W. Wierzchoś. 1.55-m reflector + CCD.

Orbital elements:  P21Um9i
   Perihelion 2025 Jan 4.66551 +/- 0.00935 TT = 15:58:20 (JD 2460680.16551)
Epoch 2024 May 19.0 TT = JDT 2460449.5                           AutoNEOCP
M 359.65773871 +/- 0.000047         (J2000 ecliptic)
n   0.00148379 +/- 1.77e-7          Peri.  151.42714 +/- 0.00034
a  76.1294405 +/- 0.00605           Node    93.32059 +/- 0.00006
e   0.8483605 +/- 1.17e-5           Incl.   21.89889 +/- 0.000019
P 664.25                   H 11.48  G  0.15   U  2.3
q 11.5442275 +/- 2.9e-5    Q 140.714653 +/- 0.0121
From 83 observations 2021 Apr. 17-2024 May 19; mean residual 0".17
Residuals in arcseconds: 
210417 F51  .09-  .06-    220605 F52  .19+  .06+    240501 F52  .01-  .05+    
210417 F51  .03-  .09+    220605 F52  .05+  .12-    240501 F52  .10-  .01+    
210417 F51  .01-  .01-    230327 F51  .03-  .02-    240501 F52  .18-  .11-    
210417 F51  .10-  .08-    230327 F51  .16-  .02+    240501 F52  .19-  .05-    
210601 F51  .05+  .12-    230327 F51  .08+  .00     240504 F52  .14-  .05+    
210601 F51  .17+  .11+    230327 F51  .00   .09-    240504 F52  .11-  .09+    
210601 F51  .23+  .12-    230414 F52  .14+  .07-    240504 F52  .08+  .23-    
210601 F51  .05+  .08+    230414 F52  .12+  .01-    240504 F52  .20-  .01-    
220205 F52  .04-  .24-    230513 F52  .09+  .10+    240507 F52  .27+  .06-    
220205 F52  .06+  .11-    230513 F52  .10-  .11-    240507 F52  .02-  .02+    
